map of NQN home
NQN - Airport
Location
City:  Neuquén, Neuquén, Argentina
Name:Presidente Perón International Airport
ICAO:SAZN
IATA:NQN

Details
Type:Airport (Aerodrome, Airfield)
Use:Public/Civil, International (customs port of entry)
Latitude:38°56'56"S (-38.948999)
Longitude:68°09'21"W (-68.155710)
Datum:WGS 1984
Elevation:895 ft (273 m)
Variation:2.76°E (WMM2015 magnetic declination)
-0.14° annual change
Runways:1
Longest:8432 × 147 ft (2570 × 45 m), paved

Time
Time Zone:UTC-3
Local Time:

Weather
METAR:SAZN 231200Z 27006KT CAVOK 24/12 Q1012
TAF:SAZN 231100Z 2312/2412 27005KT CAVOK TX36/2319Z TN20/2411Z
BECMG 2323/2401 25010KT

Related Locations
Nearby:
Farthest:WUT: 12375 mi / 19915 km
Xinzhou (Dingxiang) [Xinzhou Wutaishan Airport (Dingxiang Airport)], 14, CN

Find:

   beyond  
but within

Other Information
Maps:
NOTAMs:
Links:
Sources:

  
flag of Argentina
flag of Neuquén
  

Sectional Chart

Flight Planning
at skyvector.com

Satellite Image

Google Maps Satellite view

 

Copyright © 2004-2017 Karl L. Swartz. All rights reserved.
The Great Circle Mapper name and logo are trademarks of the Great Circle Mapper.
All other trademarks mentioned herein belong to their respective owners.
Please see credits for attibutions and further copyright information.

  Follow gcmap on Facebook Follow gcmap on Twitter Follow gcmap on Google+ GCmap on LinkedIn

hCard Microformat

Geo Microformat